• In Russia
  • List of Countries
  • For 7 days
  • Water Temperature
  • Satellite Maps
  • Weather Map
  • Weather Widgets
  • user-avatar
    Login

    Hourly Weather Kalgoorlie

    Today, 4 December, Sunday

    Time Temperature Precipitation Wind Pressure Humidity
    00:00 +22°C° 0 mm 7 mps 723 mmHg 36%
    01:00 +21°C° 0 mm 7 mps 724 mmHg 42%
    02:00 +19°C° 0 mm 5 mps 724 mmHg 51%
    03:00 +19°C° 0 mm 5 mps 725 mmHg 55%
    04:00 +18°C° 0 mm 4 mps 725 mmHg 59%
    05:00 +17°C° 0 mm 3 mps 725 mmHg 63%
    06:00 +18°C° 0 mm 3 mps 726 mmHg 60%
    07:00 +19°C° 0 mm 3 mps 726 mmHg 58%
    08:00 +20°C° 0 mm 4 mps 727 mmHg 55%
    09:00 +22°C° 0 mm 3 mps 727 mmHg 50%
    10:00 +24°C° 0 mm 3 mps 727 mmHg 45%
    11:00 +25°C° 0 mm 3 mps 727 mmHg 40%
    12:00 +26°C° 0 mm 3 mps 726 mmHg 36%
    13:00 +27°C° 0 mm 3 mps 726 mmHg 32%
    14:00 +28°C° 0 mm 3 mps 726 mmHg 27%
    15:00 +29°C° 0 mm 3 mps 726 mmHg 27%
    16:00 +29°C° 0 mm 3 mps 725 mmHg 26%
    17:00 +29°C° 0 mm 4 mps 725 mmHg 26%
    18:00 +27°C° 0 mm 4 mps 725 mmHg 29%
    19:00 +26°C° 0 mm 5 mps 726 mmHg 32%
    20:00 +23°C° 0 mm 5 mps 726 mmHg 35%
    21:00 +22°C° 0 mm 6 mps 726 mmHg 36%
    22:00 +22°C° 0 mm 6 mps 726 mmHg 36%
    23:00 +21°C° 0 mm 7 mps 726 mmHg 37%

    Tomorrow, 5 December, Monday

    Time Temperature Precipitation Wind Pressure Humidity
    00:00 +18°C° 0 mm 7 mps 726 mmHg 44%
    01:00 +17°C° 0 mm 8 mps 726 mmHg 51%
    02:00 +16°C° 0 mm 9 mps 726 mmHg 58%
    03:00 +15°C° 0 mm 8 mps 726 mmHg 60%
    04:00 +15°C° 0 mm 8 mps 726 mmHg 62%
    05:00 +15°C° 0 mm 7 mps 726 mmHg 64%
    06:00 +16°C° 0 mm 7 mps 726 mmHg 58%
    07:00 +18°C° 0 mm 7 mps 727 mmHg 52%
    08:00 +21°C° 0 mm 7 mps 727 mmHg 46%
    09:00 +23°C° 0 mm 6 mps 726 mmHg 41%
    10:00 +26°C° 0 mm 6 mps 726 mmHg 36%
    11:00 +29°C° 0 mm 5 mps 726 mmHg 31%
    12:00 +30°C° 0 mm 4 mps 725 mmHg 28%
    13:00 +31°C° 0 mm 2 mps 724 mmHg 25%
    14:00 +32°C° 0 mm 1 mps 723 mmHg 22%
    15:00 +32°C° 0 mm 2 mps 723 mmHg 22%
    16:00 +33°C° 0 mm 4 mps 723 mmHg 22%
    17:00 +33°C° 0 mm 5 mps 723 mmHg 21%
    18:00 +30°C° 0 mm 5 mps 724 mmHg 25%
    19:00 +28°C° 0 mm 5 mps 725 mmHg 29%
    20:00 +26°C° 0 mm 5 mps 725 mmHg 33%
    21:00 +25°C° 0 mm 5 mps 726 mmHg 39%
    22:00 +23°C° 0 mm 4 mps 726 mmHg 44%
    23:00 +22°C° 0 mm 4 mps 727 mmHg 50%

    Day after tomorrow, 6 December, Tuesday

    Time Temperature Precipitation Wind Pressure Humidity
    00:00 +21°C° 0 mm 4 mps 727 mmHg 53%
    01:00 +21°C° 0 mm 4 mps 727 mmHg 56%
    02:00 +20°C° 0 mm 3 mps 727 mmHg 58%
    03:00 +19°C° 0 mm 3 mps 727 mmHg 60%
    04:00 +19°C° 0 mm 3 mps 728 mmHg 62%
    05:00 +18°C° 0 mm 3 mps 728 mmHg 64%
    06:00 +20°C° 0 mm 3 mps 728 mmHg 59%
    07:00 +21°C° 0 mm 4 mps 729 mmHg 55%
    08:00 +23°C° 0 mm 4 mps 729 mmHg 51%
    09:00 +26°C° 0 mm 3 mps 729 mmHg 45%
    10:00 +28°C° 0 mm 2 mps 729 mmHg 39%
    11:00 +29°C° 0 mm 1 mps 729 mmHg 33%
    12:00 +31°C° 0 mm 1 mps 728 mmHg 29%
    13:00 +32°C° 0 mm 1 mps 728 mmHg 25%
    14:00 +31°C° 0 mm 0 mps 727 mmHg 21%
    15:00 +33°C° 0 mm 1 mps 727 mmHg 20%
    16:00 +33°C° 0 mm 1 mps 726 mmHg 19%
    17:00 +33°C° 0 mm 1 mps 726 mmHg 19%
    18:00 +32°C° 0 mm 2 mps 726 mmHg 21%
    19:00 +30°C° 0 mm 3 mps 726 mmHg 23%
    20:00 +29°C° 0 mm 3 mps 727 mmHg 25%
    21:00 +28°C° 0 mm 4 mps 727 mmHg 28%
    22:00 +27°C° 0 mm 5 mps 727 mmHg 31%
    23:00 +26°C° 0 mm 5 mps 727 mmHg 35%

    7 December, Wednesday

    Time Temperature Precipitation Wind Pressure Humidity
    00:00 +25°C° 0 mm 5 mps 726 mmHg 40%
    01:00 +23°C° 0 mm 5 mps 726 mmHg 46%
    02:00 +22°C° 0 mm 4 mps 726 mmHg 51%
    03:00 +22°C° 0 mm 4 mps 726 mmHg 55%
    04:00 +21°C° 0 mm 3 mps 726 mmHg 58%
    05:00 +20°C° 0 mm 2 mps 726 mmHg 62%
    06:00 +24°C° 0 mm 2 mps 727 mmHg 54%
    07:00 +26°C° 0 mm 2 mps 727 mmHg 46%
    08:00 +29°C° 0 mm 2 mps 727 mmHg 37%
    09:00 +31°C° 0 mm 3 mps 727 mmHg 31%
    10:00 +34°C° 0 mm 5 mps 727 mmHg 24%
    11:00 +36°C° 0 mm 6 mps 727 mmHg 17%
    12:00 +38°C° 0 mm 6 mps 727 mmHg 16%
    13:00 +38°C° 0 mm 7 mps 726 mmHg 15%
    14:00 +39°C° 0 mm 8 mps 726 mmHg 13%
    15:00 +38°C° 0 mm 8 mps 726 mmHg 14%
    16:00 +36°C° 0 mm 7 mps 726 mmHg 15%
    17:00 +35°C° 0 mm 7 mps 726 mmHg 15%
    18:00 +32°C° 0 mm 8 mps 727 mmHg 23%
    19:00 +28°C° 0 mm 9 mps 728 mmHg 31%
    20:00 +24°C° 0 mm 10 mps 729 mmHg 39%
    21:00 +22°C° 0 mm 10 mps 729 mmHg 45%
    22:00 +19°C° 0 mm 9 mps 730 mmHg 51%
    23:00 +17°C° 0 mm 9 mps 730 mmHg 57%

    8 December, Thursday

    Time Temperature Precipitation Wind Pressure Humidity
    00:00 +16°C° 0 mm 8 mps 730 mmHg 57%
    01:00 +15°C° 0 mm 7 mps 731 mmHg 57%
    02:00 +14°C° 0 mm 7 mps 731 mmHg 57%
    03:00 +14°C° 0 mm 6 mps 731 mmHg 59%
    04:00 +13°C° 0 mm 6 mps 731 mmHg 61%
    05:00 +13°C° 0 mm 5 mps 732 mmHg 63%
    06:00 +14°C° 0 mm 6 mps 732 mmHg 57%
    07:00 +16°C° 0 mm 6 mps 733 mmHg 51%
    08:00 +17°C° 0 mm 6 mps 733 mmHg 45%
    09:00 +20°C° 0 mm 6 mps 733 mmHg 39%
    10:00 +22°C° 0 mm 5 mps 732 mmHg 32%
    11:00 +26°C° 0 mm 5 mps 732 mmHg 25%
    12:00 +27°C° 0 mm 5 mps 732 mmHg 23%
    13:00 +28°C° 0 mm 4 mps 731 mmHg 20%
    14:00 +30°C° 0 mm 4 mps 731 mmHg 17%
    15:00 +30°C° 0 mm 4 mps 730 mmHg 17%
    16:00 +30°C° 0 mm 4 mps 730 mmHg 17%
    17:00 +30°C° 0 mm 4 mps 730 mmHg 16%
    18:00 +28°C° 0 mm 4 mps 731 mmHg 19%
    19:00 +26°C° 0 mm 5 mps 731 mmHg 21%
    20:00 +23°C° 0 mm 5 mps 731 mmHg 24%
    21:00 +23°C° 0 mm 5 mps 731 mmHg 26%
    22:00 +22°C° 0 mm 5 mps 731 mmHg 28%
    23:00 +21°C° 0 mm 6 mps 732 mmHg 29%

    9 December, Friday

    Time Temperature Precipitation Wind Pressure Humidity
    00:00 +20°C° 0 mm 6 mps 731 mmHg 36%
    01:00 +18°C° 0 mm 7 mps 731 mmHg 43%
    02:00 +17°C° 0 mm 7 mps 731 mmHg 50%
    03:00 +16°C° 0 mm 7 mps 731 mmHg 54%
    04:00 +16°C° 0 mm 7 mps 731 mmHg 57%
    05:00 +15°C° 0 mm 6 mps 731 mmHg 61%
    06:00 +17°C° 0 mm 6 mps 731 mmHg 54%
    07:00 +20°C° 0 mm 7 mps 732 mmHg 46%
    08:00 +22°C° 0 mm 7 mps 732 mmHg 39%
    09:00 +26°C° 0 mm 6 mps 732 mmHg 33%
    10:00 +28°C° 0 mm 6 mps 732 mmHg 27%
    11:00 +32°C° 0 mm 5 mps 731 mmHg 21%
    12:00 +33°C° 0 mm 5 mps 731 mmHg 19%
    13:00 +34°C° 0 mm 4 mps 730 mmHg 16%
    14:00 +35°C° 0 mm 3 mps 730 mmHg 14%
    15:00 +36°C° 0 mm 2 mps 729 mmHg 14%
    16:00 +36°C° 0 mm 2 mps 729 mmHg 13%
    17:00 +36°C° 0 mm 2 mps 729 mmHg 13%
    18:00 +34°C° 0 mm 3 mps 729 mmHg 14%
    19:00 +32°C° 0 mm 4 mps 729 mmHg 16%
    20:00 +29°C° 0 mm 5 mps 729 mmHg 18%
    21:00 +28°C° 0 mm 5 mps 729 mmHg 19%
    22:00 +27°C° 0 mm 6 mps 729 mmHg 21%
    23:00 +27°C° 0 mm 6 mps 729 mmHg 22%
    Show more